GW0719 Weather Reports


Display with metric or nautical units.
time (UTC)temp
F
wind
direction
speed
MPH
gust
MPH
rain 1hr
in
rain 24hr
in
rain mn
in
humidity
%
barometer
mb
20260902204359 79 195 0.0 2.0 0.00 0.00 0.00 10 1006.4
20260902203855 79 202 1.0 2.0 0.00 0.00 0.00 10 1006.4
20260902203350 79 158 0.0 0.0 0.00 0.00 0.00 10 1006.6
20260902202850 78 165 0.0 0.0 0.00 0.00 0.00 10 1006.7
20260902202346 79 209 1.0 3.0 0.00 0.00 0.00 10 1006.6
20260902201842 78 142 0.0 1.0 0.00 0.00 0.00 10 1006.8
20260902201342 78 206 0.0 0.0 0.00 0.00 0.00 10 1006.9
20260902200837 79 197 0.0 0.0 0.00 0.00 0.00 10 1006.8
20260902200332 79 203 0.0 1.0 0.00 0.00 0.00 10 1006.8
20260902195828 78 203 0.0 0.0 0.00 0.00 0.00 10 1007.1
20260902195327 79 223 0.0 0.0 0.00 0.00 0.00 10 1007.0
20260902194822 79 216 0.0 0.0 0.00 0.00 0.00 10 1007.0
20260902194316 78 265 0.0 0.0 0.00 0.00 0.00 10 1006.8
20260902193812 78 204 0.0 1.0 0.00 0.00 0.00 10 1007.0
20260902193308 77 231 0.0 2.0 0.00 0.00 0.00 10 1007.0
20260902192807 77 240 0.0 0.0 0.00 0.00 0.00 10 1007.0
20260902192307 77 230 0.0 0.0 0.00 0.00 0.00 10 1007.2
20260902191805 77 212 0.0 0.0 0.00 0.00 0.00 10 1007.5
20260902191301 78 226 0.0 0.0 0.00 0.00 0.00 10 1007.4
20260902190756 78 217 0.0 0.0 0.00 0.00 0.00 10 1007.5
20260902190255 77 183 0.0 0.0 0.00 0.00 0.00 10 1007.5
20260902185751 77 170 0.0 2.0 0.00 0.00 0.00 10 1007.7
20260902185246 77 279 0.0 0.0 0.00 0.00 0.00 10 1007.8
20260902184742 76 202 0.0 0.0 0.00 0.00 0.00 10 1007.7
20260902184243 77 202 0.0 1.0 0.00 0.00 0.00 10 1007.7
20260902183738 75 253 0.0 0.0 0.00 0.00 0.00 10 1007.8
20260902183234 76 223 0.0 0.0 0.00 0.00 0.00 10 1007.9
20260902182730 76 202 0.0 2.0 0.00 0.00 0.00 10 1007.9
20260902182227 77 231 0.0 0.0 0.00 0.00 0.00 10 1007.9
20260902181723 76 213 0.0 0.0 0.00 0.00 0.00 10 1008.3
20260902181222 75 196 1.0 3.0 0.00 0.00 0.00 10 1008.0
20260902180717 75 229 0.0 2.0 0.00 0.00 0.00 10 1008.1
20260902180213 75 191 0.0 2.0 0.00 0.00 0.00 10 1008.3
20260902175708 76 209 0.0 2.0 0.00 0.00 0.00 10 1008.1
20260902175204 75 240 0.0 1.0 0.00 0.00 0.00 10 1008.3
20260902174659 75 219 0.0 0.0 0.00 0.00 0.00 10 1008.3
20260902174155 74 232 0.0 2.0 0.00 0.00 0.00 10 1008.5
20260902173651 75 279 0.0 3.0 0.00 0.00 0.00 10 1008.6
20260902173145 74 232 0.0 1.0 0.00 0.00 0.00 10 1008.1
20260902172639 75 253 0.0 2.0 0.00 0.00 0.00 10 1008.6
20260902172138 74 269 0.0 0.0 0.00 0.00 0.00 10 1008.5
20260902171634 73 232 1.0 2.0 0.00 0.00 0.00 10 1008.5
20260902171130 74 255 0.0 2.0 0.00 0.00 0.00 10 1008.2
20260902170625 74 264 1.0 2.0 0.00 0.00 0.00 10 1008.6
20260902170121 73 241 2.0 2.0 0.00 0.00 0.00 10 1008.2
20260902165621 73 240 0.0 0.0 0.00 0.00 0.00 10 1008.3
20260902165115 74 242 0.0 2.0 0.00 0.00 0.00 10 1008.5
20260902164610 73 250 0.0 0.0 0.00 0.00 0.00 10 1008.3
20260902164109 72 233 0.0 1.0 0.00 0.00 0.00 10 1008.2
20260902163605 72 283 0.0 1.0 0.00 0.00 0.00 10 1008.2
20260902163103 71 251 0.0 0.0 0.00 0.00 0.00 10 1008.3
20260902162602 71 237 0.0 2.0 0.00 0.00 0.00 10 1008.3
20260902162057 71 242 0.0 0.0 0.00 0.00 0.00 10 1008.5
20260902161552 70 229 0.0 0.0 0.00 0.00 0.00 10 1008.9
20260902161048 71 236 0.0 0.0 0.00 0.00 0.00 10 1008.5
20260902160544 72 259 0.0 0.0 0.00 0.00 0.00 10 1008.7
20260902160039 72 236 0.0 0.0 0.00 0.00 0.00 10 1008.7
20260902155532 72 245 0.0 0.0 0.00 0.00 0.00 10 1008.5
20260902155031 72 238 0.0 1.0 0.00 0.00 0.00 10 1008.6
20260902154527 73 262 0.0 1.0 0.00 0.00 0.00 10 1008.7
20260902154021 73 238 1.0 1.0 0.00 0.00 0.00 10 1008.6
20260902153520 73 247 0.0 1.0 0.00 0.00 0.00 10 1008.8
20260902153016 73 296 0.0 1.0 0.00 0.00 0.00 10 1008.5
20260902152512 72 228 0.0 1.0 0.00 0.00 0.00 10 1009.0
20260902152007 71 282 0.0 0.0 0.00 0.00 0.00 10 1009.0
20260902151503 69 265 0.0 1.0 0.00 0.00 0.00 10 1009.0
20260902150956 67 229 0.0 0.0 0.00 0.00 0.00 10 1008.9
20260902150452 67 277 0.0 0.0 0.00 0.00 0.00 10 1009.0
20260902145952 67 278 0.0 0.0 0.00 0.00 0.00 10 1009.1
20260902145448 67 293 0.0 0.0 0.00 0.00 0.00 10 1009.2
20260902144947 67 322 0.0 0.0 0.00 0.00 0.00 10 1009.2
20260902144444 67 277 0.0 0.0 0.00 0.00 0.00 10 1009.3
20260902143938 66 301 0.0 0.0 0.00 0.00 0.00 10 1009.3
20260902143434 65 298 0.0 0.0 0.00 0.00 0.00 10 1009.3
20260902142928 65 342 0.0 2.0 0.00 0.00 0.00 10 1009.2
20260902142425 65 318 0.0 1.0 0.00 0.00 0.00 10 1009.6
20260902141920 65 320 0.0 0.0 0.00 0.00 0.00 10 1009.4
20260902141415 66 308 0.0 1.0 0.00 0.00 0.00 10 1009.4
20260902140914 67 281 0.0 0.0 0.00 0.00 0.00 10 1009.4
20260902140410 67 294 0.0 1.0 0.00 0.00 0.00 10 1009.3
20260902135909 66 276 0.0 0.0 0.00 0.00 0.00 10 1009.3
20260902135406 65 35 0.0 0.0 0.00 0.00 0.00 10 1009.2
20260902134904 64 341 0.0 0.0 0.00 0.00 0.00 10 1009.1
20260902134400 63 257 0.0 1.0 0.00 0.00 0.00 10 1009.4
20260902133855 62 290 0.0 0.0 0.00 0.00 0.00 10 1009.2
20260902133355 61 309 0.0 0.0 0.00 0.00 0.00 10 1009.0
20260902132850 60 315 0.0 0.0 0.00 0.00 0.00 10 1009.0
20260902132345 60 301 0.0 0.0 0.00 0.00 0.00 10 1009.1
20260902131841 58 329 0.0 0.0 0.00 0.00 0.00 10 1008.9
20260902131337 58 27 0.0 0.0 0.00 0.00 0.00 10 1009.2
20260902130836 57 246 0.0 0.0 0.00 0.00 0.00 10 1009.2
20260902130332 55 240 0.0 0.0 0.00 0.00 0.00 10 1009.0
20260902125827 53 233 0.0 0.0 0.00 0.00 0.00 10 1008.8
20260902125323 51 279 0.0 0.0 0.00 0.00 0.00 10 1008.9
20260902124819 51 37 0.0 0.0 0.00 0.00 0.00 10 1008.6
20260902124315 51 35 0.0 0.0 0.00 0.00 0.00 10 1008.8
20260902123809 51 41 0.0 0.0 0.00 0.00 0.00 10 1008.8
20260902123306 50 50 0.0 0.0 0.00 0.00 0.00 10 1008.8
20260902122759 51 17 0.0 0.0 0.00 0.00 0.00 10 1008.9
20260902122255 51 29 0.0 0.0 0.00 0.00 0.00 10 1008.7
20260902121754 51 328 0.0 0.0 0.00 0.00 0.00 10 1008.9
20260902121250 52 303 0.0 0.0 0.00 0.00 0.00 10 1008.8
20260902120745 52 301 0.0 0.0 0.00 0.00 0.00 10 1009.0
20260902120241 53 312 0.0 0.0 0.00 0.00 0.00 10 1009.0
20260902115736 54 294 0.0 0.0 0.00 0.00 0.00 10 1009.6
20260902115232 54 302 0.0 0.0 0.00 0.00 0.00 10 1009.1
20260902114728 54 317 0.0 0.0 0.00 0.00 0.00 10 1009.3
20260902114224 54 309 0.0 0.0 0.00 0.00 0.00 10 1009.3
20260902113723 53 315 0.0 0.0 0.00 0.00 0.00 10 1009.8
20260902113219 51 332 0.0 0.0 0.00 0.00 0.00 10 1009.6
20260902112713 51 330 0.0 0.0 0.00 0.00 0.00 10 1009.7
20260902112210 50 311 0.0 0.0 0.00 0.00 0.00 10 1009.9
20260902111705 48 5 0.0 0.0 0.00 0.00 0.00 10 1009.7
20260902111202 47 41 0.0 0.0 0.00 0.00 0.00 10 1009.9
20260902110657 47 340 0.0 0.0 0.00 0.00 0.00 10 1010.0
20260902110153 48 5 0.0 0.0 0.00 0.00 0.00 10 1009.8
20260902105652 47 330 0.0 0.0 0.00 0.00 0.00 10 1009.7
20260902105148 46 28 0.0 0.0 0.00 0.00 0.00 10 1009.9
20260902104643 46 41 0.0 0.0 0.00 0.00 0.00 10 1010.0
20260902104138 46 20 0.0 0.0 0.00 0.00 0.00 10 1009.8
20260902103637 47 17 0.0 0.0 0.00 0.00 0.00 10 1009.7
20260902103133 47 32 0.0 0.0 0.00 0.00 0.00 10 1009.7
20260902102629 48 46 0.0 0.0 0.00 0.00 0.00 10 1009.6
20260902102126 49 51 0.0 0.0 0.00 0.00 0.00 10 1009.7
20260902101621 51 61 0.0 0.0 0.00 0.00 0.00 10 1009.8
20260902101120 52 104 0.0 0.0 0.00 0.00 0.00 10 1009.7
20260902100615 52 112 0.0 0.0 0.00 0.00 0.00 10 1009.4
20260902100110 52 105 0.0 0.0 0.00 0.00 0.00 10 1009.8
20260902095609 51 76 0.0 0.0 0.00 0.00 0.00 10 1009.8
20260902095108 51 65 0.0 0.0 0.00 0.00 0.00 10 1009.3
20260902094603 51 17 0.0 0.0 0.00 0.00 0.00 10 1010.0
20260902094100 49 73 0.0 0.0 0.00 0.00 0.00 10 1009.6
20260902093554 49 42 0.0 0.0 0.00 0.00 0.00 10 1009.7
20260902093049 49 57 0.0 0.0 0.00 0.00 0.00 10 1009.9
20260902092543 47 66 0.0 0.0 0.00 0.00 0.00 10 1009.6
20260902092039 49 56 0.0 0.0 0.00 0.00 0.00 10 1009.6
20260902091534 49 36 0.0 0.0 0.00 0.00 0.00 10 1010.1
20260902091030 49 51 0.0 0.0 0.00 0.00 0.00 10 1010.0
20260902090526 49 315 0.0 0.0 0.00 0.00 0.00 10 1010.1
20260902090025 50 29 0.0 0.0 0.00 0.00 0.00 10 1010.2
20260902085524 49 305 0.0 0.0 0.00 0.00 0.00 10 1010.1
20260902085020 49 358 0.0 0.0 0.00 0.00 0.00 10 1010.1
20260902084516 51 39 0.0 0.0 0.00 0.00 0.00 10 1010.3
20260902084011 50 12 0.0 0.0 0.00 0.00 0.00 10 1010.3
20260902083507 50 59 0.0 0.0 0.00 0.00 0.00 10 1010.2
20260902083001 51 59 0.0 0.0 0.00 0.00 0.00 10 1010.2
20260902082457 51 60 0.0 0.0 0.00 0.00 0.00 10 1010.4
20260902081953 52 58 0.0 0.0 0.00 0.00 0.00 10 1010.2
20260902081450 53 58 0.0 0.0 0.00 0.00 0.00 10 1010.3
20260902080944 54 43 0.0 0.0 0.00 0.00 0.00 10 1010.2
20260902080440 54 359 0.0 0.0 0.00 0.00 0.00 10 1010.4
20260902075939 55 38 0.0 0.0 0.00 0.00 0.00 10 1010.0
20260902075436 54 12 0.0 0.0 0.00 0.00 0.00 10 1010.1
20260902074931 55 49 0.0 0.0 0.00 0.00 0.00 10 1010.1
20260902074426 56 46 0.0 0.0 0.00 0.00 0.00 10 1010.3
20260902073921 55 57 0.0 0.0 0.00 0.00 0.00 10 1010.2
20260902073417 56 53 0.0 0.0 0.00 0.00 0.00 10 1010.0
20260902072913 56 59 0.0 0.0 0.00 0.00 0.00 10 1010.1
20260902072409 54 58 0.0 0.0 0.00 0.00 0.00 10 1010.1
20260902071905 55 54 0.0 0.0 0.00 0.00 0.00 10 1010.1
20260902071404 55 35 0.0 0.0 0.00 0.00 0.00 10 1010.2
20260902070901 56 51 0.0 0.0 0.00 0.00 0.00 10 1010.2
20260902070356 56 51 0.0 0.0 0.00 0.00 0.00 10 1010.2
20260902065854 57 61 0.0 0.0 0.00 0.00 0.00 10 1010.2
20260902065350 59 45 0.0 0.0 0.00 0.00 0.00 10 1010.5
20260902064845 61 60 0.0 0.0 0.00 0.00 0.00 10 1010.3
20260902064341 60 70 0.0 0.0 0.00 0.00 0.00 10 1010.2
20260902063836 60 70 0.0 0.0 0.00 0.00 0.00 10 1010.3
20260902063331 58 95 0.0 0.0 0.00 0.00 0.00 10 1010.4
20260902062825 57 65 0.0 0.0 0.00 0.00 0.00 10 1010.3
20260902062320 58 75 0.0 0.0 0.00 0.00 0.00 10 1010.3
20260902061819 58 89 0.0 0.0 0.00 0.00 0.00 10 1010.3
20260902061315 58 72 0.0 0.0 0.00 0.00 0.00 10 1010.4
20260902060811 58 82 0.0 0.0 0.00 0.00 0.00 10 1010.4
20260902060306 58 107 0.0 0.0 0.00 0.00 0.00 10 1010.3
20260902055801 57 98 0.0 0.0 0.00 0.00 0.00 10 1010.3
20260902055253 57 74 0.0 0.0 0.00 0.00 0.00 10 1010.3
20260902054753 57 63 0.0 0.0 0.00 0.00 0.00 10 1010.5
20260902054248 58 61 0.0 0.0 0.00 0.00 0.00 10 1010.4
20260902053744 59 61 0.0 0.0 0.00 0.00 0.00 10 1010.5
20260902053243 59 63 0.0 0.0 0.00 0.00 0.00 10 1010.2
20260902052743 60 67 0.0 0.0 0.00 0.00 0.00 10 1010.4
20260902052238 59 85 0.0 0.0 0.00 0.00 0.00 10 1010.5
20260902051737 59 49 0.0 0.0 0.00 0.00 0.00 10 1010.4
20260902051231 60 59 0.0 0.0 0.00 0.00 0.00 10 1010.5
20260902050727 60 54 0.0 0.0 0.00 0.00 0.00 10 1010.4
20260902050217 60 65 0.0 0.0 0.00 0.00 0.00 10 1010.4
20260902045716 61 65 0.0 0.0 0.00 0.00 0.00 10 1010.8
20260902045213 62 69 0.0 0.0 0.00 0.00 0.00 10 1010.4
20260902044708 61 97 0.0 0.0 0.00 0.00 0.00 10 1010.8
20260902044204 62 153 0.0 0.0 0.00 0.00 0.00 10 1010.8
20260902043658 62 236 0.0 0.0 0.00 0.00 0.00 10 1010.7
20260902043154 63 189 0.0 0.0 0.00 0.00 0.00 10 1010.7
20260902042653 65 202 0.0 0.0 0.00 0.00 0.00 10 1010.7
20260902042149 66 180 0.0 0.0 0.00 0.00 0.00 10 1010.7
20260902041648 66 176 0.0 1.0 0.00 0.00 0.00 10 1010.7
20260902041143 66 181 0.0 1.0 0.00 0.00 0.00 10 1010.7
20260902040642 66 187 0.0 1.0 0.00 0.00 0.00 10 1010.7
20260902040138 66 188 0.0 1.0 0.00 0.00 0.00 10 1010.7
20260902035636 66 186 0.0 0.0 0.00 0.00 0.00 10 1010.7
20260902035132 64 170 0.0 0.0 0.00 0.00 0.00 10 1010.8
20260902034631 64 119 0.0 0.0 0.00 0.00 0.00 10 1010.8
20260902034125 65 169 0.0 0.0 0.00 0.00 0.00 10 1011.0
20260902033624 65 185 0.0 0.0 0.00 0.00 0.00 10 1010.8
20260902033119 64 154 0.0 0.0 0.00 0.00 0.00 10 1010.9
20260902032618 62 137 0.0 0.0 0.00 0.00 0.00 10 1010.8
20260902032112 63 84 0.0 0.0 0.00 0.00 0.00 10 1010.9
20260902031607 64 77 0.0 0.0 0.00 0.00 0.00 10 1011.0
20260902031103 66 163 0.0 0.0 0.00 0.00 0.00 10 1010.7
20260902030558 66 180 0.0 0.0 0.00 0.00 0.00 10 1011.0
20260902030057 67 144 0.0 0.0 0.00 0.00 0.00 10 1011.0
20260902025552 67 159 0.0 0.0 0.00 0.00 0.00 10 1011.0
20260902025047 67 124 0.0 0.0 0.00 0.00 0.00 10 1010.9
20260902024543 67 122 0.0 0.0 0.00 0.00 0.00 10 1010.7
20260902024043 64 134 0.0 0.0 0.00 0.00 0.00 10 1010.9
20260902023538 65 72 0.0 0.0 0.00 0.00 0.00 10 1010.7
20260902023033 69 88 0.0 0.0 0.00 0.00 0.00 10 1010.7
20260902022527 69 157 0.0 0.0 0.00 0.00 0.00 10 1010.3
20260902022023 69 129 0.0 0.0 0.00 0.00 0.00 10 1010.8
20260902021519 69 108 0.0 0.0 0.00 0.00 0.00 10 1010.7
20260902021014 69 157 0.0 0.0 0.00 0.00 0.00 10 1010.2
20260902020509 69 130 0.0 0.0 0.00 0.00 0.00 10 1010.4
20260902020005 70 95 0.0 0.0 0.00 0.00 0.00 10 1010.7
20260902015501 71 132 0.0 0.0 0.00 0.00 0.00 10 1010.5
20260902014956 71 144 0.0 0.0 0.00 0.00 0.00 10 1010.4
20260902014452 73 115 0.0 0.0 0.00 0.00 0.00 10 1010.2
20260902013952 75 143 0.0 0.0 0.00 0.00 0.00 10 1010.3
20260902013447 76 137 0.0 0.0 0.00 0.00 0.00 10 1010.5
20260902012942 77 129 0.0 0.0 0.00 0.00 0.00 10 1010.2
20260902012438 78 108 0.0 0.0 0.00 0.00 0.00 10 1010.5
20260902011933 79 158 0.0 0.0 0.00 0.00 0.00 10 1010.2
20260902011428 79 165 0.0 0.0 0.00 0.00 0.00 10 1010.3
20260902010928 80 164 0.0 0.0 0.00 0.00 0.00 10 1010.4
20260902010423 80 88 0.0 0.0 0.00 0.00 0.00 10 1010.3
20260902005922 81 136 0.0 1.0 0.00 0.00 0.00 10 1010.2
20260902005416 81 161 0.0 0.0 0.00 0.00 0.00 10 1010.5
20260902004912 81 152 0.0 0.0 0.00 0.00 0.00 10 1010.3
20260902004411 81 163 0.0 0.0 0.00 0.00 0.00 10 1010.8
20260902003907 81 167 0.0 2.0 0.00 0.00 0.00 10 1010.7
20260902003402 81 139 0.0 2.0 0.00 0.00 0.00 10 1010.5
20260902002857 81 219 0.0 1.0 0.00 0.00 0.00 10 1010.5
20260902002356 82 155 0.0 0.0 0.00 0.00 0.00 10 1010.5
20260902001852 81 154 1.0 1.0 0.00 0.00 0.00 10 1010.7
20260902001347 82 182 0.0 0.0 0.00 0.00 0.00 10 1010.5
20260902000841 82 195 0.0 1.0 0.00 0.00 0.00 10 1010.9
20260902000337 82 148 0.0 0.0 0.00 0.00 0.00 10 1010.8
20260901235832 82 149 0.0 1.0 0.00 0.00 0.00 10 1010.8
20260901235331 82 141 0.0 1.0 0.00 0.00 0.00 10 1010.7
20260901234826 82 209 0.0 0.0 0.00 0.00 0.00 10 1010.8
20260901234322 82 172 0.0 0.0 0.00 0.00 0.00 10 1010.5
20260901233816 82 118 0.0 0.0 0.00 0.00 0.00 10 1010.8
20260901233311 82 161 0.0 0.0 0.00 0.00 0.00 10 1011.0
20260901232807 82 180 0.0 0.0 0.00 0.00 0.00 10 1010.9
20260901232301 82 168 0.0 0.0 0.00 0.00 0.00 10 1011.0
20260901231758 82 174 0.0 0.0 0.00 0.00 0.00 10 1011.1
20260901231254 82 149 0.0 1.0 0.00 0.00 0.00 10 1011.0
20260901230750 83 183 0.0 0.0 0.00 0.00 0.00 10 1011.1
20260901230249 82 238 0.0 0.0 0.00 0.00 0.00 10 1011.0
20260901225744 82 203 0.0 0.0 0.00 0.00 0.00 10 1011.4
20260901225238 83 197 0.0 2.0 0.00 0.00 0.00 10 1011.2
20260901224734 82 199 0.0 0.0 0.00 0.00 0.00 10 1011.1
20260901224230 83 179 0.0 1.0 0.00 0.00 0.00 10 1011.5
20260901223727 83 195 0.0 0.0 0.00 0.00 0.00 10 1011.2
20260901223221 83 208 0.0 1.0 0.00 0.00 0.00 10 1011.5
20260901222717 84 173 0.0 0.0 0.00 0.00 0.00 10 1011.3
20260901222213 83 230 0.0 0.0 0.00 0.00 0.00 10 1011.8
20260901221709 83 188 0.0 0.0 0.00 0.00 0.00 10 1011.4
20260901221205 83 207 0.0 0.0 0.00 0.00 0.00 10 1011.8
20260901220703 82 222 0.0 0.0 0.00 0.00 0.00 10 1011.4
20260901220203 82 167 0.0 0.0 0.00 0.00 0.00 10 1011.6
20260901215702 82 151 0.0 0.0 0.00 0.00 0.00 10 1011.9
20260901215202 82 182 0.0 0.0 0.00 0.00 0.00 10 1012.0
20260901214659 82 210 0.0 1.0 0.00 0.00 0.00 10 1011.6
20260901214149 82 208 0.0 0.0 0.00 0.00 0.00 10 1012.0
20260901213649 82 168 0.0 0.0 0.00 0.00 0.00 10 1012.2
20260901213143 82 173 0.0 2.0 0.00 0.00 0.00 10 1012.2
20260901212643 81 197 0.0 2.0 0.00 0.00 0.00 10 1012.3
20260901212139 82 203 0.0 2.0 0.00 0.00 0.00 10 1012.3
20260901211634 81 185 0.0 2.0 0.00 0.00 0.00 10 1012.3
20260901211131 80 175 1.0 2.0 0.00 0.00 0.00 10 1012.3
20260901210626 81 177 0.0 1.0 0.00 0.00 0.00 10 1012.4
20260901210122 81 172 0.0 1.0 0.00 0.00 0.00 10 1012.4
20260901205617 82 153 0.0 2.0 0.00 0.00 0.00 10 1012.4
20260901205111 81 174 0.0 2.0 0.00 0.00 0.00 10 1012.6